Simultaneous Nadir Overpasses (SNOs) Predictions

Prediction of SNOs between AQUA and GOES-15 Satellite Orbit:

Table of predicted SNOs for the next 14.0 days since TLE Epoch: 5/3/2019
Index Date Time (AQUA) AQUA Lat,Lon GOES-15 Lat,Lon Distance(km) Time Diff (sec)
1 05/04/2019 22:04:24 0.15,-127.18 -0.06,-128.18 113.69 80
2 05/05/2019 10:25:40 0.91,-132.34 0.05,-128.19 471.89 80
3 05/06/2019 21:52:12 0.77,-124.22 -0.06,-128.22 454.62 80
4 05/07/2019 10:13:28 0.28,-129.39 0.05,-128.23 131.25 80
5 05/09/2019 10:01:16 -0.35,-126.43 0.05,-128.26 208.69 80
6 05/09/2019 22:22:40 -0.76,-131.62 -0.04,-128.27 380.91 80
7 05/11/2019 22:10:28 -0.13,-128.66 -0.05,-128.30 41.55 80
8 05/13/2019 21:58:16 0.51,-125.71 -0.05,-128.32 297.54 80
9 05/14/2019 10:19:31 0.59,-130.86 0.04,-128.33 288.21 80
10 05/16/2019 10:07:19 -0.05,-127.91 0.04,-128.35 50.53 80




NCC Satellite Simultaneous Nadir Overpasses (SNOs) Prediction Service
